EST,Max TemperatureF,Mean TemperatureF,Min TemperatureF,Max Dew PointF,MeanDew PointF,Min DewpointF,Max Humidity, Mean Humidity, Min Humidity, Max Sea Level PressureIn, Mean Sea Level PressureIn, Min Sea Level PressureIn, Max VisibilityMiles, Mean VisibilityMiles, Min VisibilityMiles, Max Wind SpeedMPH, Mean Wind SpeedMPH, Max Gust SpeedMPH,PrecipitationIn, CloudCover, Events, WindDirDegrees
2014-2-1,26,19,12,24,18,9,92,86,74,30.17,30.03,29.88,,,,13,5,,0.37,,,357
2014-2-2,21,14,6,17,12,3,87,78,63,30.29,30.16,30.00,,,,9,6,,0.00,,,296
2014-2-3,16,6,-5,7,1,-9,87,79,65,30.41,30.36,30.31,,,,8,3,,0.00,,,229
2014-2-4,21,14,7,17,10,3,85,76,65,30.47,30.40,30.29,,,,9,5,,0.00,,,198
2014-2-5,24,20,14,21,13,6,89,76,65,30.36,30.19,30.06,,,,25,14,32,0.04,,,10
2014-2-6,17,9,1,12,4,-2,84,74,64,30.36,30.28,30.20,,,,12,4,22,0.01,,,239
2014-2-7,14,8,3,5,1,-2,77,69,64,30.25,30.22,30.18,,,,15,11,30,0.00,,,243
2014-2-8,17,10,3,11,3,-3,84,71,59,30.30,30.25,30.20,,,,10,7,18,0.01,,,230
2014-2-9,21,16,10,14,10,6,88,80,65,30.18,30.11,30.04,,,,7,5,,0.03,,,255
2014-2-10,15,12,10,7,4,0,81,68,51,30.40,30.29,30.17,,,,8,6,,0.00,,,299
2014-2-11,10,5,0,0,-4,-8,73,63,53,30.54,30.50,30.41,,,,9,5,,0.00,,,288
2014-2-12,18,10,1,8,2,-4,83,71,62,30.48,30.31,30.12,,,,8,5,,0.00,,,181
2014-2-13,24,16,8,16,11,4,85,72,60,30.13,29.88,29.57,,,,14,4,,0.01,,,147
2014-2-14,28,24,19,23,18,14,88,81,69,29.80,29.60,29.48,,,,9,5,,0.01,,,252
2014-2-15,17,12,6,11,5,1,84,76,64,30.09,30.00,29.82,,,,10,5,,0.00,,,298
2014-2-16,18,9,-5,12,5,-9,88,78,70,30.42,30.18,30.01,,,,16,3,,0.10,,,14
2014-2-17,23,6,-9,20,1,-14,92,77,54,30.48,30.22,29.70,,,,26,7,31,0.25,,,146
2014-2-18,37,28,19,27,19,12,92,76,63,29.95,29.79,29.64,,,,17,10,22,0.11,,,211
2014-2-19,41,32,24,28,25,20,84,70,60,29.99,29.77,29.58,,,,10,6,16,0.00,,,242
2014-2-20,37,34,30,33,28,22,96,83,64,30.04,29.85,29.44,,,,26,10,25,0.55,,,143
2014-2-21,43,36,28,41,25,14,93,70,56,29.61,29.43,29.31,,,,21,13,37,0.02,,,217
2014-2-22,30,27,24,16,14,12,65,59,53,29.91,29.77,29.63,,,,20,14,32,0.00,,,240
2014-2-23,25,21,17,14,9,7,71,61,49,30.01,29.98,29.92,,,,15,9,25,0.00,,,263
2014-2-24,21,16,12,13,7,0,84,66,52,30.17,30.08,30.00,,,,14,8,22,0.02,,,286
2014-2-25,19,13,7,14,5,-1,78,68,56,30.16,30.07,29.96,,,,16,8,26,0.00,,,273
2014-2-26,12,8,3,0,-4,-8,69,60,51,30.08,29.90,29.57,,,,15,11,28,0.00,,,256
2014-2-27,9,5,1,5,0,-10,87,75,53,29.75,29.58,29.50,,,,21,10,29,0.04,,,273
2014-2-28,14,11,8,6,-2,-15,74,56,34,30.30,30.17,30.07,,,,10,8,20,0.01,,,161